Date,TemperatureHighF,TemperatureAvgF,TemperatureLowF,DewpointHighF,DewpointAvgF,DewpointLowF,HumidityHigh,HumidityAvg,HumidityLow,PressureMaxIn,PressureMinIn,WindSpeedMaxMPH,WindSpeedAvgMPH,GustSpeedMaxMPH,PrecipitationSumIn
2013-1-2,72.3,66.1,62.8,68.2,63.7,61.0,95,92,87,30.03,29.98,2,0,2,0.00
2013-1-3,81.6,70.1,61.5,70.3,65.2,60.3,97,86,51,30.09,29.97,17,1,17,0.00
2013-1-4,69.7,66.7,65.6,68.2,64.8,63.5,95,94,92,30.20,30.07,7,3,7,0.00
2013-1-5,78.3,69.4,64.4,67.8,65.0,61.3,94,86,68,30.22,30.11,11,3,11,0.00
2013-1-6,81.3,71.1,64.9,71.7,67.3,63.7,97,88,68,30.15,30.01,13,1,13,0.00
2013-1-7,76.0,70.0,66.5,69.0,67.1,64.4,95,91,76,30.14,30.04,13,2,13,0.00
2013-1-8,83.0,69.3,65.0,80.7,65.7,63.2,96,89,63,30.16,30.05,13,0,13,0.00
2013-1-9,84.8,75.7,71.7,69.2,68.6,64.9,89,79,53,30.22,30.11,16,1,16,0.00
2013-1-10,83.6,74.6,67.4,68.3,65.8,61.9,89,76,51,30.24,30.10,19,2,19,0.00
2013-1-11,82.9,72.0,63.1,69.0,64.4,61.0,96,79,49,30.22,30.07,14,1,14,0.01
2013-1-12,82.7,73.1,66.3,69.8,66.5,64.2,94,81,56,30.14,30.02,14,2,14,0.00
2013-1-13,81.8,71.6,65.2,68.8,65.4,61.6,93,81,56,30.09,30.01,16,1,16,0.01
2013-1-14,81.0,70.4,62.8,65.9,62.9,59.9,94,78,55,30.14,30.06,8,1,12,0.00
2013-1-15,81.0,70.0,60.5,68.1,63.2,58.8,96,80,56,30.11,30.01,11,1,11,0.00
2013-1-16,81.5,71.0,60.4,67.7,64.0,58.8,96,80,52,30.07,29.97,14,1,14,0.01
2013-1-17,78.3,67.5,60.8,70.5,62.0,51.5,96,83,68,30.10,29.95,25,4,25,0.00
2013-1-18,60.7,54.0,52.4,52.0,46.6,45.1,78,76,72,30.26,30.08,19,5,19,0.00
2013-1-19,74.6,63.2,52.4,64.7,56.4,45.4,92,79,69,30.20,30.06,13,3,13,0.00
2013-1-20,78.4,69.2,65.0,67.8,64.5,61.0,93,86,64,30.12,29.98,12,1,12,0.00
2013-1-21,67.7,64.4,64.1,64.0,62.2,62.0,93,93,88,30.06,29.96,7,0,7,0.00
2013-1-22,70.4,64.7,58.3,62.0,55.0,41.1,93,73,49,30.21,30.01,14,3,16,0.00
2013-1-23,74.1,61.3,54.1,52.9,46.1,41.8,72,59,32,30.30,30.18,16,3,16,0.00
2013-1-24,74.5,61.1,50.8,52.8,47.5,37.8,90,65,27,30.28,30.17,12,2,12,0.00
2013-1-25,76.3,61.4,49.5,55.9,51.8,47.2,95,73,42,30.26,30.14,10,1,10,0.00
2013-1-26,57.1,53.7,52.8,51.3,48.9,48.4,88,84,79,30.24,30.12,4,1,4,0.00
2013-1-27,79.3,64.7,53.4,59.8,53.8,48.7,84,70,45,30.24,30.15,14,2,14,0.00
2013-1-28,82.0,71.4,63.6,64.8,61.4,58.6,88,72,52,30.27,30.14,15,2,15,0.00
2013-1-29,84.0,72.3,63.3,68.5,64.6,60.6,93,78,52,30.19,30.05,17,2,17,0.00
2013-1-30,82.0,72.5,66.0,67.8,65.5,62.2,92,80,55,30.06,29.92,20,3,20,0.00
2013-1-31,70.4,66.4,51.5,68.3,57.9,37.2,94,76,42,30.18,29.90,13,3,13,0.00